Regional Weather Roundup
Issued by NWS

Home | Current Version | Previous Version | Text Only | Print | Product List | Glossary On
Versions: 1 2 3 4 5 6 7 8 9 10 11 12 13 14 15 16 17 18 19 20 21 22 23 24 25 26 27 28 29 30 31 32 33 34 35 36 37 38 39 40 41 42 43 44 45 46 47 48 49 50
000
ASUS45 KTFX 310819
RWRMT
MONTANA HOURLY WEATHER ROUNDUP
NATIONAL WEATHER SERVICE GREAT FALLS MT
219 AM MDT THU JUL 31 2014

NOTE: "FAIR" INDICATES FEW OR NO CLOUDS BELOW 12000 FEET WITH NO
SIGNIFICANT WEATHER AND/OR OBSTRUCTIONS TO VISIBILITY.

* THESE STATIONS ARE NOT UNDER NWS QUALITY CONTROL. THEY DO NOT
   REPORT WEATHER SUCH AS PRECIPITATION OR FOG.

MTZ001>007-043-310900-
WEST OF THE DIVIDE
CITY           SKY/WX    TMP DP  RH WIND       PRES   REMARKS
KALISPELL      CLEAR     57  48  72 VRB3      30.11S
MISSOULA       PTCLDY    68  46  45 S6        30.15S
BUTTE          CLEAR     55  45  69 SE3       30.31S
MULLAN PASS    CLEAR     72  34  25 W3        30.31S
* ESSEX        N/A       60  47  62 NW1        N/A
* LINCOLN      N/A       53  50  90 SE1        N/A
* LOOKOUT PASS N/A       64  42  45 N/A        N/A
* POLSON       N/A       67  43  42 E1         N/A
* RONAN APT    PTCLDY    63  54  73 N/A        N/A
* SEELEY LAKE  N/A       53  43  69 N1         N/A
* THOMP F APT  CLEAR     60  41  50 N5G10      N/A
* YAAK HILL    N/A       67  48  51 NE1        N/A
$$

MTZ008-052>055-310900-
SOUTHWEST MONTANA
CITY           SKY/WX    TMP DP  RH WIND       PRES   REMARKS
BOZEMAN        PTCLDY    57  45  64 SE10      30.23S
DILLON         CLEAR     57  43  60 S7        30.28S
W YELLOWSTONE  PTCLDY    46  41  83 NE3       30.39R
* THREE FORKS  CLEAR     59  54  84 N/A        N/A
* BOULDER HILL N/A       62  39  43 S8         N/A
* MONIDA PASS  N/A       48  45  89 W3         N/A
* RAYNOLDS PAS N/A       50  29  44 SE3        N/A
* WHITEHALL    N/A       63  44  50 N5         N/A
* WISE RIVER   N/A       53  45  74 NE2        N/A
$$

MTZ009>010-012-014-046-048-049-054-310900-
EAST SLOPES AND CENTRAL MONTANA
CITY           SKY/WX    TMP DP  RH WIND       PRES   REMARKS
CUT BANK       PTCLDY    64  41  43 CALM      30.13F
GREAT FALLS    CLEAR     63  45  52 SW6       30.14S
HELENA         CLEAR     70  46  42 CALM      30.17R
MALMSTROM AFB  PTCLDY    68  45  44 SW6       30.15F
* CONRAD       PTCLDY    61  48  62 N/A        N/A
* DEARBORN     N/A       63  49  60 S5         N/A
* EAST GLACIER N/A       66  41  40 W7G13      N/A
* MONARCH      N/A       59  39  48 E3         N/A
* PENDROY      N/A       67  47  49 W13        N/A
* ROGERS PASS  N/A       63  41  45 NW4        N/A
* SAINT MARY   N/A       53  44  72 SE3        N/A
* SWEET GRASS  N/A       71  39  31 W6         N/A
* WHITE SULPH  N/A       58  38  47 SE6G12     N/A
$$

MTZ011-013-016-021-035-040-045-047-050-051-310900-
NORTH CENTRAL MONTANA
CITY           SKY/WX    TMP DP  RH WIND       PRES   REMARKS
HAVRE          PTCLDY    66  46  49 SE6       30.01S
LEWISTOWN      MOCLDY    63  41  45 SE5       30.16F
* FORT BENTON  PTCLDY    77  43  30 SW9       30.07F
* CHESTER      N/A       66  41  40 N4         N/A
* DENTON       N/A       70  44  39 SW8        N/A
* GEYSER       N/A       59  45  60 S6         N/A
* JUDITH GAP   N/A       59  38  46 N/A        N/A
* LOMA         N/A       74  44  34 W15G22     N/A
$$

MTZ017>020-022>027-061-062-310900-
NORTHEAST MONTANA
CITY           SKY/WX    TMP DP  RH WIND       PRES   REMARKS
GLASGOW        MOCLDY    66  48  52 E10       30.03F
GLENDIVE       PTCLDY    63  48  58 NE13G25   30.14R
JORDAN         PTCLDY    68  41  38 CALM      30.07F
SIDNEY         MOCLDY    64  54  70 CALM      30.17R
WOLF POINT     PTCLDY    66  48  52 E13       30.10R
* BEAVER HILL  N/A       65  51  61 SE12       N/A
* CIRCLE       N/A       69  50  51 W5         N/A
* LINDSAY DVD  N/A       64  50  61 S5         N/A
$$

MTZ028>042-056>058-310900-
SOUTHCENTRAL AND SOUTHEAST MONTANA
CITY           SKY/WX    TMP DP  RH WIND       PRES   REMARKS
BAKER          CLEAR     57  48  72 CALM      30.14F
BILLINGS       MOCLDY    72  37  28 E3        30.14S
LIVINGSTON     PTCLDY    57  37  47 W6        30.21S
MILES CITY     PTCLDY    66  46  49 SE8       30.10F
* LAUREL APT   MOCLDY    63  36  37 N/A        N/A
* ROUNDUP APT  MOCLDY    68  32  26 N/A        N/A
* ALZADA       N/A       59  48  67 E2         N/A
* HYSHAM       N/A       75  39  27 S4G14      N/A
* LAME DEER    N/A       69  38  32 SE6        N/A
* REED POINT   N/A       55  43  64 N/A        N/A
* ROSCOE HILL  N/A       68  34  28 SW4        N/A
$$

REGIONAL REPORTS...DAKOTAS
CITY           SKY/WX    TMP DP  RH WIND       PRES   REMARKS
WILLISTON      LGT RAIN  64  57  78 N5        30.15F
DICKINSON      MOCLDY    61  54  78 N7        30.15R
CROSBY         N/A       63  63 100 S6        30.10F
TIOGA          CLEAR     59  59 100 CALM      30.16F
WATFORD CITY   LGT RAIN  61  59  93 SW5       30.14R
BISMARCK       MOCLDY    63  55  75 CALM      30.11S
GRAND FORKS    CLEAR     59  55  87 SW6       30.02F
FARGO          CLEAR     59  55  87 W3        30.04F
BUFFALO SD     CLEAR     61  52  72 W5        30.09F
RAPID CITY     PTCLDY    57  48  72 NW7       30.16F
$$

REGIONAL REPORTS...WYOMING/IDAHO/WASHINGTON
CITY           SKY/WX    TMP DP  RH WIND       PRES   REMARKS
GILLETTE       PTCLDY    57  46  67 S3        30.22F
SHERIDAN       PTCLDY    52  43  72 S3        30.18F
YELLOWSTONE LA PTCLDY    45  39  80 CALM      30.48S
SALMON         PTCLDY    57  48  72 W5        30.24R
MULLAN PASS    CLEAR     72  34  25 W3        30.31S
SAND POINT     CLEAR     59  52  78 CALM      30.04R
SPOKANE        FAIR      79  32  18 CALM      30.03R
$$

REGIONAL REPORTS...ALBERTA
CITY           SKY/WX    TMP DP  RH WIND       PRES   REMARKS
CALGARY        PTCLDY    68  43  40 NW2       30.09S
LETHBRIDGE     CLEAR     61  48  62 W12       30.08F
MEDICINE HAT   CLEAR     68  52  57 W10       30.01F
EDMONTON       PTCLDY    64  63  97 SE2       30.03S
WATERTON GATE  N/A       55  45  69 S6         N/A
CARDSTON       N/A       66  45  47 W7         N/A
MILK RIVER     N/A       61  45  56 NW6        N/A
$$

REGIONAL REPORTS...SASKATCHEWAN
CITY           SKY/WX    TMP DP  RH WIND       PRES   REMARKS
SWIFT CURRENT  CLEAR     59  55  87 SE12      30.02F
REGINA         N/A       63  57  81 E12       30.07F
VAL MARIE      N/A       61  52  72 NE8        N/A
ASSINIBOIA     N/A       66  52  61 S9         N/A
CORONACH       N/A       64  52  65 S10        N/A

$$



USA.gov is the U.S. government's official web portal to all federal, state and local government web resources and services.